EW7075 Weather Reports


Display with metric or nautical units.
time (UTC)temp
F
wind
direction
speed
MPH
gust
MPH
rain 1hr
in
rain 24hr
in
rain mn
in
humidity
%
barometer
mb
20260502164057 64 116 0.0 0.0 0.00 2.63 2.57 94 1021.8
20260502163601 64 122 0.0 0.0 0.00 2.63 2.57 95 1021.9
20260502163058 64 138 0.0 0.0 0.00 2.63 2.57 95 1022.0
20260502162601 64 197 0.0 0.0 0.00 2.63 2.57 94 1021.8
20260502162101 64 143 0.0 0.0 0.00 2.63 2.57 94 1021.7
20260502161557 65 187 0.0 0.0 0.00 2.63 2.57 93 1021.7
20260502160557 65 197 0.0 0.0 0.00 2.63 2.57 92 1021.6
20260502152102 65 140 0.0 0.0 0.00 2.63 2.57 95 1020.9
20260502151604 66 157 0.0 0.0 0.00 2.63 2.57 94 1020.9
20260502151105 66 161 0.0 0.0 0.00 2.63 2.57 94 1020.7
20260502150558 66 141 0.0 0.0 0.00 2.63 2.57 96 1020.5
20260502130557 63 131 0.0 0.0 0.00 2.63 2.57 100 1020.5
20260502122557 63 138 0.0 0.0 0.02 2.63 2.57 100 1020.0
20260502122101 63 127 0.0 0.0 0.02 2.63 2.57 100 1020.0
20260502121601 63 141 0.0 0.0 0.02 2.63 2.57 100 1020.0
20260502121101 63 151 0.0 0.0 0.02 2.63 2.57 100 1019.6
20260502120558 63 149 0.0 0.0 0.02 2.63 2.57 100 1019.5
20260502120111 64 175 0.0 0.0 0.02 2.63 2.57 100 1019.6
20260502115556 64 126 0.0 0.0 0.02 2.63 2.57 100 1019.3
20260502115058 64 123 0.0 0.0 0.02 2.63 2.57 100 1019.2
20260502114557 64 134 0.0 0.0 0.02 2.63 2.57 100 1019.1
20260502114101 64 122 0.0 0.0 0.02 2.63 2.57 100 1019.1
20260502113558 64 113 0.0 0.0 0.02 2.63 2.57 100 1019.0
20260502113056 64 119 0.0 0.0 0.00 2.61 2.55 100 1018.8
20260502112558 64 123 0.0 0.0 0.00 2.61 2.55 100 1018.7
20260502112100 64 65 0.0 0.0 0.00 2.61 2.55 100 1018.6
20260502111057 64 65 0.0 0.0 0.00 2.61 2.55 100 1018.2
20260502110559 64 65 0.0 0.0 0.00 2.61 2.55 100 1018.3
20260502110056 64 65 0.0 0.0 0.00 2.61 2.55 100 1018.0
20260502104556 64 65 0.0 0.0 0.00 2.61 2.55 100 1017.4
20260502104057 64 65 0.0 0.0 0.00 2.61 2.55 100 1017.3
20260502103558 64 65 0.0 0.0 0.00 2.61 2.55 100 1017.3
20260502103058 64 63 0.0 0.0 0.00 2.61 2.55 100 1017.0
20260502102557 64 63 0.0 0.0 0.00 2.61 2.55 100 1016.9
20260502102059 63 63 0.0 0.0 0.00 2.61 2.55 100 1016.9
20260502101104 63 63 0.0 0.0 0.00 2.61 2.55 100 1016.7
20260502100557 63 63 0.0 0.0 0.00 2.61 2.55 100 1016.6
20260502091105 64 62 0.0 0.0 0.00 2.61 2.55 99 1015.6
20260502090600 64 117 0.0 0.0 0.00 2.61 2.55 99 1015.8
20260502071103 64 120 0.0 0.0 0.01 2.61 2.55 100 1014.6
20260502070557 64 120 0.0 0.0 0.01 2.61 2.55 100 1014.8
20260502070100 64 156 0.0 0.0 0.01 2.61 2.55 100 1014.7
20260502065556 64 143 0.0 0.0 0.02 2.61 2.55 100 1014.8
20260502065100 64 143 0.0 0.0 0.03 2.61 2.55 100 1014.6
20260502064600 64 136 0.0 0.0 0.04 2.61 2.55 100 1014.6
20260502064057 64 132 0.0 0.0 0.06 2.61 2.55 100 1014.4
20260502063557 64 132 0.0 0.0 0.08 2.61 2.55 100 1014.5
20260502062600 64 116 0.0 0.0 0.10 2.60 2.54 100 1014.6
20260502062102 64 100 0.0 0.0 0.13 2.60 2.54 100 1014.4
20260502061558 64 207 0.0 0.0 0.15 2.60 2.54 100 1014.6
20260502061058 64 130 0.0 0.0 0.18 2.60 2.54 100 1014.4
20260502060556 64 43 0.0 0.0 0.22 2.60 2.54 100 1014.0
20260502055557 63 136 0.0 0.0 0.26 2.59 2.53 100 1012.6
20260502054601 63 147 0.0 0.0 0.31 2.57 2.51 100 1014.0
20260502054057 63 142 0.0 0.0 0.32 2.55 2.49 100 1015.0
20260502053558 63 133 0.0 0.0 0.33 2.53 2.47 100 1015.6
20260502053100 63 127 0.0 0.0 0.34 2.52 2.46 100 1015.3
20260502052557 63 219 0.0 0.0 0.33 2.49 2.43 100 1015.3
20260502051104 63 330 0.0 0.0 0.31 2.41 2.35 100 1015.9
20260502050558 63 155 0.0 0.0 0.30 2.38 2.32 100 1016.1
20260502050100 63 131 0.0 0.0 0.28 2.35 2.29 100 1016.2
20260502045600 63 144 0.0 0.0 0.26 2.32 2.26 100 1016.3
20260502045103 63 216 0.0 0.0 0.25 2.29 2.23 100 1016.3
20260502044559 63 124 0.0 0.0 0.24 2.25 2.19 100 1016.6
20260502044105 63 128 0.0 0.0 0.24 2.23 2.17 100 1016.3
20260502043558 63 157 0.0 0.0 0.24 2.20 2.14 100 1016.6
20260502043101 63 138 0.0 0.0 0.25 2.18 2.12 100 1016.2
20260502042559 63 117 0.0 0.0 0.24 2.15 2.09 100 1016.3
20260502042100 63 61 0.0 0.0 0.24 2.13 2.07 100 1015.9
20260502041604 64 253 0.0 0.0 0.23 2.11 2.05 100 1015.7
20260502041057 64 197 0.0 0.0 0.22 2.09 2.03 100 1015.7
20260502035601 64 78 0.0 0.0 0.22 2.05 1.99 100 1016.1
20260502035105 63 275 0.0 0.0 0.22 2.03 1.97 100 1016.7
20260502034605 63 111 0.0 0.0 0.22 2.01 1.95 100 1016.6
20260502033557 63 111 0.0 0.0 0.20 1.95 1.89 100 1016.6
20260502032558 63 120 0.0 0.0 0.18 1.91 1.85 100 1016.3
20260502032056 63 111 0.0 0.0 0.17 1.89 1.83 100 1016.3
20260502031102 63 138 0.0 0.0 0.19 1.87 1.81 100 1016.0
20260502030603 63 124 0.0 0.0 0.19 1.86 1.80 100 1015.7
20260502030056 63 126 0.0 0.0 0.19 1.84 1.78 100 1015.7
20260502025558 63 76 0.0 0.0 0.18 1.82 1.76 100 1015.5
20260502025101 63 76 0.0 0.0 0.18 1.80 1.74 100 1015.8
20260502024555 63 76 0.0 0.0 0.20 1.79 1.73 100 1015.7
20260502024056 63 76 0.0 0.0 0.20 1.76 1.70 100 1015.8
20260502023105 63 76 0.0 0.0 0.24 1.74 1.68 100 1015.4
20260502022555 63 76 0.0 0.0 0.25 1.73 1.67 100 1015.9
20260502022055 63 76 0.0 0.0 0.27 1.72 1.66 100 1015.9
20260502021555 63 75 0.0 0.0 0.28 1.69 1.63 100 1016.0
20260502021103 63 149 0.0 0.0 0.34 1.68 1.62 100 1016.1
20260502020559 63 73 0.0 0.0 0.38 1.66 1.60 100 1016.5
20260502015055 63 26 0.0 0.0 0.77 1.61 1.55 99 1016.9
20260502014603 63 26 0.0 0.0 0.87 1.59 1.53 98 1016.9
20260502014055 63 80 0.0 0.0 0.94 1.56 1.50 98 1017.3
20260502013556 63 51 0.0 0.0 0.96 1.51 1.45 97 1017.1
20260502013103 63 11 0.0 0.0 1.05 1.50 1.44 97 1017.0
20260502012555 63 45 0.0 0.0 1.05 1.47 1.41 99 1016.5
20260502012055 62 329 0.0 0.0 1.03 1.44 1.38 99 1016.8
20260502011558 62 309 0.0 0.0 1.01 1.40 1.34 100 1016.3
20260502011056 62 243 0.0 0.0 1.10 1.33 1.27 100 1017.3
20260502010556 62 343 0.0 0.0 1.17 1.25 1.19 100 1017.4
20260502005601 62 282 0.0 0.0 0.88 0.95 0.89 100 1018.0
20260502005059 63 187 0.0 0.0 0.76 0.83 0.77 100 1018.4
20260502004555 63 236 0.0 0.0 0.61 0.68 0.62 100 1017.8
20260502004059 63 202 0.0 0.0 0.53 0.60 0.54 99 1017.4
20260502003555 63 207 0.0 0.0 0.45 0.52 0.46 99 1017.0
20260502003055 63 187 0.0 0.0 0.38 0.45 0.39 97 1017.7
20260502002558 63 284 0.0 0.0 0.34 0.41 0.35 96 1016.6
20260502002055 64 226 0.0 0.0 0.33 0.40 0.34 96 1017.0
20260502001559 63 213 0.0 0.0 0.32 0.39 0.33 97 1016.2
20260502001105 63 213 0.0 0.0 0.09 0.16 0.10 97 1017.0
20260502000559 63 154 0.0 0.0 0.01 0.08 0.02 96 1017.5
20260502000059 63 224 0.0 0.0 0.00 0.07 0.01 97 1013.7
20260501235559 63 45 0.0 0.0 0.01 0.07 0.01 97 1014.6
20260501235055 63 91 0.0 0.0 0.01 0.07 0.01 97 1015.6
20260501234559 64 78 0.0 0.0 0.01 0.07 0.01 97 1016.0
20260501234101 63 351 0.0 0.0 0.01 0.07 0.01 97 1015.7
20260501233559 63 312 0.0 0.0 0.01 0.07 0.01 97 1014.8
20260501233056 63 350 0.0 0.0 0.01 0.07 0.01 97 1015.1
20260501232618 63 350 0.0 0.0 0.01 0.07 0.01 97 1014.9
20260501232055 63 350 0.0 0.0 0.01 0.07 0.01 97 1015.1
20260501231555 63 350 0.0 0.0 0.01 0.07 0.01 96 1014.5
20260501231102 63 350 0.0 0.0 0.01 0.07 0.01 96 1014.5
20260501230601 63 350 0.0 0.0 0.01 0.07 0.01 96 1015.0
20260501230059 63 350 0.0 0.0 0.01 0.07 0.01 96 1015.1
20260501225557 63 321 0.0 0.0 0.00 0.06 0.00 96 1015.4
20260501225057 63 321 0.0 0.0 0.00 0.06 0.00 95 1015.5
20260501224602 63 342 0.0 0.0 0.00 0.06 0.00 95 1015.3
20260501223100 63 288 0.0 0.0 0.00 0.06 0.00 95 1015.5
20260501222558 63 351 0.0 0.0 0.00 0.06 0.00 95 1015.6
20260501222103 63 238 0.0 0.0 0.00 0.06 0.00 95 1015.9
20260501221559 63 242 0.0 0.0 0.00 0.06 0.00 96 1015.7
20260501220600 63 279 0.0 0.0 0.00 0.06 0.06 96 1016.0
20260501220058 62 151 0.0 0.0 0.00 0.06 0.06 96 1016.0
20260501215603 62 224 0.0 0.0 0.00 0.06 0.06 96 1016.2
20260501215058 63 282 0.0 0.0 0.00 0.06 0.06 96 1016.4
20260501214604 63 37 0.0 0.0 0.00 0.06 0.06 96 1016.6
20260501213602 63 278 0.0 0.0 0.00 0.06 0.06 94 1017.4
20260501212602 63 187 0.0 0.0 0.00 0.06 0.06 94 1017.5
20260501212107 63 229 0.0 0.0 0.01 0.06 0.06 95 1017.1
20260501211600 63 291 0.0 0.0 0.01 0.06 0.06 96 1016.9
20260501211105 62 322 0.0 0.0 0.03 0.06 0.06 96 1016.8
20260501210558 62 272 0.0 0.0 0.06 0.06 0.06 96 1016.5
20260501210100 62 276 0.0 0.0 0.06 0.06 0.06 98 1017.1
20260501205604 62 201 0.0 0.0 0.06 0.06 0.06 99 1016.9
20260501205058 62 95 0.0 0.0 0.06 0.06 0.06 99 1016.7
20260501202602 63 322 0.0 0.0 0.05 0.05 0.05 98 1017.0
20260501202102 63 253 0.0 0.0 0.05 0.05 0.05 98 1017.8
20260501201604 63 192 0.0 0.0 0.04 0.04 0.04 96 1018.1
20260501201105 63 216 0.0 0.0 0.03 0.03 0.03 96 1017.5
20260501200558 63 228 0.0 0.0 0.00 0.00 0.00 96 1017.1
20260501200057 63 270 0.0 0.0 0.00 0.00 0.00 96 1016.6
20260501195605 63 228 0.0 0.0 0.00 0.00 0.00 96 1016.7
20260501195100 63 291 0.0 0.0 0.00 0.00 0.00 95 1016.2
20260501194601 63 258 0.0 0.0 0.00 0.00 0.00 94 1016.1
20260501194105 64 192 0.0 0.0 0.00 0.00 0.00 94 1016.1
20260501193608 64 230 0.0 0.0 0.00 0.00 0.00 93 1016.4
20260501193059 64 207 0.0 0.0 0.00 0.00 0.00 92 1016.5
20260501192602 65 182 0.0 0.0 0.00 0.00 0.00 92 1016.5
20260501192058 66 197 0.0 0.0 0.00 0.00 0.00 91 1016.8
20260501191610 67 197 0.0 0.0 0.00 0.00 0.00 91 1016.4
20260501191108 68 209 0.0 0.0 0.00 0.00 0.00 87 1016.1
20260501190601 69 208 0.0 0.0 0.00 0.00 0.00 85 1015.8
20260501190057 69 187 0.0 0.0 0.00 0.00 0.00 84 1015.6
20260501185608 69 228 0.0 0.0 0.00 0.00 0.00 85 1015.3
20260501184558 70 132 0.0 0.0 0.00 0.00 0.00 82 1015.5
20260501183601 70 123 0.0 0.0 0.00 0.00 0.00 88 1014.9
20260501182600 71 123 0.0 0.0 0.00 0.00 0.00 87 1014.6
20260501182058 71 123 0.0 0.0 0.00 0.00 0.00 87 1014.4
20260501181604 71 123 0.0 0.0 0.00 0.00 0.00 86 1014.2
20260501181127 72 123 0.0 0.0 0.00 0.00 0.00 85 1014.2
20260501180557 72 123 0.0 0.0 0.00 0.00 0.00 85 1014.0
20260501180100 72 123 0.0 0.0 0.00 0.00 0.00 85 1013.9
20260501175614 72 123 0.0 0.0 0.00 0.00 0.00 84 1014.0
20260501174557 72 123 0.0 0.0 0.00 0.00 0.00 83 1014.2
20260501174115 73 123 0.0 0.0 0.00 0.00 0.00 82 1014.2
20260501173602 72 123 0.0 0.0 0.00 0.00 0.00 76 1014.2
20260501172610 72 129 0.0 0.0 0.00 0.00 0.00 83 1014.4
20260501172101 73 129 0.0 0.0 0.00 0.00 0.00 81 1014.5
20260501171605 73 129 0.0 0.0 0.00 0.00 0.00 79 1014.7
20260501171104 74 129 0.0 0.0 0.00 0.00 0.00 78 1014.8
20260501170603 74 129 0.0 0.0 0.00 0.00 0.00 78 1014.8
20260501170057 74 129 0.0 0.0 0.00 0.00 0.00 76 1014.9
20260501165103 73 75 0.0 0.0 0.00 0.00 0.00 70 1015.2
20260501164600 74 30 0.0 0.0 0.00 0.00 0.00 72 1015.2